• In Latvia
  • List of Countries
  • For 7 days
  • Water Temperature
  • Satellite Maps
  • Weather Map
  • Weather Widgets
  • user-avatar
    Login

    Hourly Weather Hincesti

    Today, 16 October, Tuesday

    Time Temperature Precipitation Wind Pressure Humidity
    00:00 +14°C° 0 mm 1 mps 757 mmHg 62%
    01:00 +13°C° 0 mm 1 mps 757 mmHg 64%
    02:00 +13°C° 0 mm 1 mps 757 mmHg 68%
    03:00 +12°C° 0 mm 1 mps 756 mmHg 69%
    04:00 +12°C° 0 mm 1 mps 756 mmHg 71%
    05:00 +12°C° 0 mm 1 mps 756 mmHg 72%
    06:00 +13°C° 0 mm 1 mps 756 mmHg 69%
    07:00 +14°C° 0 mm 1 mps 756 mmHg 66%
    08:00 +14°C° 0 mm 1 mps 756 mmHg 62%
    09:00 +17°C° 0 mm 2 mps 756 mmHg 55%
    10:00 +19°C° 0 mm 2 mps 756 mmHg 48%
    11:00 +21°C° 0 mm 3 mps 756 mmHg 40%
    12:00 +22°C° 0 mm 3 mps 756 mmHg 37%
    13:00 +24°C° 0 mm 3 mps 756 mmHg 35%
    14:00 +25°C° 0 mm 3 mps 756 mmHg 32%
    15:00 +24°C° 0 mm 3 mps 755 mmHg 35%
    16:00 +23°C° 0 mm 2 mps 755 mmHg 38%
    17:00 +21°C° 0 mm 2 mps 755 mmHg 41%
    18:00 +21°C° 0 mm 1 mps 755 mmHg 44%
    19:00 +20°C° 0 mm 1 mps 755 mmHg 47%
    20:00 +19°C° 0 mm 1 mps 755 mmHg 50%
    21:00 +18°C° 0 mm 1 mps 755 mmHg 51%
    22:00 +18°C° 0 mm 1 mps 755 mmHg 53%
    23:00 +16°C° 0 mm 1 mps 755 mmHg 55%

    Tomorrow, 17 October, Wednesday

    Time Temperature Precipitation Wind Pressure Humidity
    00:00 +16°C° 0 mm 1 mps 755 mmHg 57%
    01:00 +16°C° 0 mm 1 mps 755 mmHg 59%
    02:00 +15°C° 0 mm 1 mps 755 mmHg 61%
    03:00 +15°C° 0 mm 1 mps 755 mmHg 64%
    04:00 +14°C° 0 mm 1 mps 755 mmHg 67%
    05:00 +14°C° 0 mm 1 mps 755 mmHg 69%
    06:00 +15°C° 0 mm 2 mps 755 mmHg 67%
    07:00 +15°C° 0 mm 2 mps 755 mmHg 66%
    08:00 +16°C° 0 mm 2 mps 755 mmHg 64%
    09:00 +18°C° 0 mm 3 mps 755 mmHg 58%
    10:00 +20°C° 0 mm 3 mps 755 mmHg 52%
    11:00 +22°C° 0 mm 4 mps 755 mmHg 46%
    12:00 +23°C° 0 mm 4 mps 755 mmHg 43%
    13:00 +23°C° 0 mm 4 mps 755 mmHg 39%
    14:00 +25°C° 0 mm 4 mps 754 mmHg 36%
    15:00 +24°C° 0 mm 3 mps 754 mmHg 39%
    16:00 +22°C° 0 mm 3 mps 754 mmHg 43%
    17:00 +21°C° 0 mm 2 mps 754 mmHg 46%
    18:00 +20°C° 0 mm 2 mps 754 mmHg 49%
    19:00 +18°C° 0 mm 2 mps 754 mmHg 53%
    20:00 +18°C° 0 mm 1 mps 754 mmHg 56%
    21:00 +18°C° 0 mm 1 mps 754 mmHg 58%
    22:00 +16°C° 0 mm 1 mps 754 mmHg 59%
    23:00 +16°C° 0 mm 1 mps 754 mmHg 61%

    Day after tomorrow, 18 October, Thursday

    Time Temperature Precipitation Wind Pressure Humidity
    00:00 +15°C° 0 mm 1 mps 754 mmHg 62%
    01:00 +15°C° 0 mm 1 mps 754 mmHg 63%
    02:00 +14°C° 0 mm 1 mps 754 mmHg 64%
    03:00 +14°C° 0 mm 1 mps 753 mmHg 65%
    04:00 +14°C° 0 mm 2 mps 753 mmHg 66%
    05:00 +13°C° 0 mm 2 mps 753 mmHg 67%
    06:00 +14°C° 0 mm 2 mps 753 mmHg 65%
    07:00 +14°C° 0 mm 2 mps 753 mmHg 63%
    08:00 +15°C° 0 mm 2 mps 753 mmHg 60%
    09:00 +17°C° 0 mm 3 mps 753 mmHg 54%
    10:00 +19°C° 0 mm 3 mps 753 mmHg 48%
    11:00 +21°C° 0 mm 3 mps 753 mmHg 42%
    12:00 +22°C° 0 mm 3 mps 753 mmHg 39%
    13:00 +22°C° 0 mm 3 mps 752 mmHg 37%
    14:00 +24°C° 0 mm 3 mps 752 mmHg 34%
    15:00 +23°C° 0 mm 2 mps 752 mmHg 36%
    16:00 +21°C° 0 mm 2 mps 752 mmHg 39%
    17:00 +20°C° 0 mm 2 mps 751 mmHg 42%
    18:00 +20°C° 0 mm 1 mps 752 mmHg 45%
    19:00 +19°C° 0 mm 1 mps 752 mmHg 48%
    20:00 +16°C° 0 mm 1 mps 752 mmHg 52%
    21:00 +16°C° 0 mm 1 mps 752 mmHg 53%
    22:00 +15°C° 0 mm 1 mps 752 mmHg 55%
    23:00 +14°C° 0 mm 0 mps 751 mmHg 57%

    19 October, Friday

    Time Temperature Precipitation Wind Pressure Humidity
    00:00 +15°C° 0 mm 1 mps 751 mmHg 58%
    01:00 +14°C° 0 mm 1 mps 751 mmHg 58%
    02:00 +14°C° 0 mm 1 mps 751 mmHg 59%
    03:00 +14°C° 0 mm 1 mps 751 mmHg 59%
    04:00 +14°C° 0 mm 1 mps 751 mmHg 59%
    05:00 +14°C° 0 mm 1 mps 751 mmHg 59%
    06:00 +14°C° 0 mm 1 mps 751 mmHg 58%
    07:00 +15°C° 0 mm 1 mps 751 mmHg 56%
    08:00 +15°C° 0 mm 1 mps 751 mmHg 54%
    09:00 +18°C° 0 mm 1 mps 751 mmHg 49%
    10:00 +19°C° 0 mm 2 mps 751 mmHg 44%
    11:00 +20°C° 0 mm 2 mps 751 mmHg 39%
    12:00 +21°C° 0 mm 2 mps 751 mmHg 37%
    13:00 +23°C° 0 mm 2 mps 750 mmHg 34%
    14:00 +23°C° 0 mm 2 mps 750 mmHg 32%
    15:00 +21°C° 0 mm 2 mps 750 mmHg 35%
    16:00 +20°C° 0 mm 2 mps 750 mmHg 37%
    17:00 +19°C° 0 mm 2 mps 750 mmHg 40%
    18:00 +18°C° 0 mm 2 mps 750 mmHg 42%
    19:00 +18°C° 0 mm 2 mps 750 mmHg 44%
    20:00 +17°C° 0 mm 2 mps 750 mmHg 46%
    21:00 +16°C° 0 mm 2 mps 750 mmHg 48%
    22:00 +16°C° 0 mm 2 mps 750 mmHg 50%
    23:00 +16°C° 0 mm 2 mps 750 mmHg 52%

    20 October, Saturday

    Time Temperature Precipitation Wind Pressure Humidity
    00:00 +15°C° 0 mm 2 mps 750 mmHg 56%
    01:00 +13°C° 0 mm 3 mps 750 mmHg 60%
    02:00 +13°C° 0 mm 3 mps 750 mmHg 64%
    03:00 +13°C° 0 mm 3 mps 750 mmHg 67%
    04:00 +12°C° 0 mm 3 mps 750 mmHg 71%
    05:00 +12°C° 0 mm 3 mps 750 mmHg 74%
    06:00 +13°C° 0 mm 3 mps 750 mmHg 74%
    07:00 +13°C° 0 mm 4 mps 751 mmHg 73%
    08:00 +14°C° 0 mm 4 mps 751 mmHg 73%
    09:00 +15°C° 0 mm 4 mps 751 mmHg 67%
    10:00 +16°C° 0 mm 5 mps 751 mmHg 61%
    11:00 +19°C° 0 mm 5 mps 751 mmHg 55%
    12:00 +19°C° 0 mm 5 mps 751 mmHg 53%
    13:00 +20°C° 0 mm 5 mps 750 mmHg 51%
    14:00 +20°C° 0 mm 5 mps 750 mmHg 50%
    15:00 +19°C° 0 mm 5 mps 750 mmHg 52%
    16:00 +18°C° 0 mm 4 mps 750 mmHg 54%
    17:00 +18°C° 0 mm 3 mps 750 mmHg 57%
    18:00 +17°C° 0 mm 3 mps 750 mmHg 61%
    19:00 +16°C° 0 mm 3 mps 750 mmHg 65%
    20:00 +14°C° 0 mm 3 mps 751 mmHg 69%
    21:00 +13°C° 0 mm 3 mps 751 mmHg 71%
    22:00 +13°C° 0 mm 3 mps 751 mmHg 73%
    23:00 +12°C° 0 mm 3 mps 751 mmHg 75%

    21 October, Sunday

    Time Temperature Precipitation Wind Pressure Humidity
    00:00 +12°C° 0 mm 3 mps 751 mmHg 77%
    01:00 +11°C° 0 mm 3 mps 751 mmHg 79%
    02:00 +11°C° 0 mm 3 mps 750 mmHg 81%
    03:00 +10°C° 0 mm 3 mps 750 mmHg 83%
    04:00 +10°C° 0 mm 3 mps 750 mmHg 86%
    05:00 +10°C° 0 mm 3 mps 750 mmHg 88%
    06:00 +10°C° 0 mm 3 mps 750 mmHg 86%
    07:00 +11°C° 0 mm 4 mps 751 mmHg 84%
    08:00 +11°C° 0 mm 4 mps 751 mmHg 82%
    09:00 +12°C° 0 mm 4 mps 751 mmHg 76%
    10:00 +13°C° 0 mm 5 mps 751 mmHg 70%
    11:00 +14°C° 0 mm 5 mps 751 mmHg 64%
    12:00 +15°C° 0 mm 5 mps 750 mmHg 62%
    13:00 +15°C° 0 mm 5 mps 750 mmHg 59%
    14:00 +15°C° 0 mm 5 mps 750 mmHg 56%
    15:00 +15°C° 0 mm 4 mps 750 mmHg 58%
    16:00 +14°C° 0 mm 4 mps 750 mmHg 60%
    17:00 +13°C° 0 mm 3 mps 750 mmHg 62%
    18:00 +13°C° 0.1 mm 3 mps 750 mmHg 64%
    19:00 +12°C° 0.1 mm 3 mps 750 mmHg 65%
    20:00 +12°C° 0.1 mm 4 mps 750 mmHg 67%
    21:00 +12°C° 0.3 mm 4 mps 750 mmHg 69%
    22:00 +11°C° 0.3 mm 4 mps 750 mmHg 72%
    23:00 +11°C° 0.3 mm 4 mps 751 mmHg 75%
    Show more